Regional Weather Roundup
Issued by NWS

Home | Current Version | Previous Version | Text Only | Print | Product List | Glossary On
Versions: 1 2 3 4 5 6 7 8 9 10 11 12 13 14 15 16 17 18 19 20 21 22 23 24 25 26 27 28 29 30 31 32 33 34 35 36 37 38 39 40 41 42 43 44 45 46 47 48 49 50
848
ASUS44 KLIX 240405
RWRLA
LOUISIANA WEATHER ROUNDUP
NATIONAL WEATHER SERVICE NEW ORLEANS LA
1000 PM CST SUN NOV 23 2014

NOTE: "FAIR" INDICATES FEW OR NO CLOUDS BELOW 12,000 FEET WITH NO
      SIGNIFICANT WEATHER AND/OR OBSTRUCTIONS TO VISIBILITY.
      SKY/WX - SKY CONDITION AND SIGNIFICANT WEATHER.
      TMP - AIR TEMPERATURE.    DP   - DEWPOINT TEMPERATURE.
      RH  - RELATIVE HUMIDITY.  PRES - PRESSURE.
      HX  - HEAT INDEX.         WCI  - WIND CHILL INDEX.

*  THESE STATIONS ARE NOT NWS OR FAA STATIONS AND ARE NOT UNDER
   NWS QUALITY CONTROL.

LAZ040-048-061>063-065-066-069-240500-
SOUTHEAST LOUISIANA

CITY           SKY/WX    TMP DP  RH WIND       PRES   REMARKS
N.O. AUDUBON     N/A     67  67 100 MISG        N/A
N.O. INTL ARPT PTCLDY    64  62  93 S8        29.74R
N.O. LAKEFRONT PTCLDY    68  65  90 S13       29.75R
N.O. DOWNTOWN* CLOUDY    70  64  83 S9        29.75S
SLIDELL        MOCLDY    68  66  93 S9        29.73S
BATON ROUGE    PTCLDY    68  64  87 SW16G25   29.70R
BOOTHVILLE     CLOUDY    68  68 100 S10       29.77R
BELLE CHASSE   CLOUDY    69  65  86 SW8       29.74S
BOGALUSA*        N/A     66  62  87 S7        29.74R
NEW ROADS*     FAIR      66  64  93 S8        29.70R
GONZALES*      MOCLDY    66  66 100 S5        29.72R
HAMMOND*       MOCLDY    68  64  88 SW6       29.74R
HOUMA*         CLEAR     69  67  94 SW7       29.74R
PORT FOURCHON* MOCLDY    70  68  94 S8        29.79R FOG

$$

LAZ041-044-053-054-240500-
SOUTHWEST LOUISIANA

CITY           SKY/WX    TMP DP  RH WIND       PRES   REMARKS
LAKE CHARLES   CLEAR     65  63  93 SW6       29.69R
LAFAYETTE      CLEAR     68  65  90 SW12      29.70R
PATTERSON      CLEAR     68  64  88 SW12      29.74S
SALT POINT       N/A     70  65  84 VRB5      29.72R
NEW IBERIA     CLOUDY    67  65  93 SW10      29.72R FOG
CHENAULT AIRPK CLEAR     64  63  94 SW9       29.69R

$$

LAZ027-028-240500-
CENTRAL LOUISIANA

CITY           SKY/WX    TMP DP  RH WIND       PRES   REMARKS
FORT POLK      CLEAR     61  57  87 S8        29.65R
ALEXANDRIA INT CLEAR     64  58  80 SW13      29.63R
ALEXANDRIA     CLEAR     64  58  80 SW7       29.65R

$$

LAZ001-002-240500-
NORTHWEST LOUISIANA

CITY           SKY/WX    TMP DP  RH WIND       PRES   REMARKS
SHREVEPORT     CLEAR     63  48  58 W14       29.60R
BARKSDALE AFB  CLEAR     64  48  56 W12       29.59R
DTN SHREVEPORT CLEAR     63  47  55 W9        29.60R

$$

LAZ014-016-240500-
NORTHEAST LOUISIANA

CITY           SKY/WX    TMP DP  RH WIND       PRES   REMARKS
MONROE         CLEAR     62  58  86 SW14      29.58R
TALLULAH       CLEAR     67  58  72 S12G24    29.60R

$$




USA.gov is the U.S. government's official web portal to all federal, state and local government web resources and services.